{"data":{"norad_id":60554,"intl_designator":"2024-149CQ","name":"UM5-RIBAT","alt_names":[],"object_type":"PAYLOAD","status":"ACTIVE","operator":null,"country":"MA","launch_date":"2024-08-16","launch_site_code":"AFWTR","launch_vehicle":null,"mission":null,"orbit_class":"UNKNOWN","rcs_meters":null,"size_class":null,"mass_kg":null,"dimensions":null,"purposes":[],"wikipedia_slug":null,"has_3d_model":false,"image_url":null,"decayed_at":null,"tle_current":{"epoch":"2026-09-22T17:11:33.834048Z","epoch_age_seconds":97491,"freshness":"FRESH","line1":"1 60554U 24149CQ  26265.71636382  .00001298  00000+0  10512-3 0  9998","line2":"2 60554  97.6374 342.0971 0003855 115.5402 244.6221 15.01434919114827","mean_motion":15.01434919,"eccentricity":0.0003855,"inclination_deg":97.6374,"raan_deg":342.0971,"arg_perigee_deg":115.5402,"mean_anomaly_deg":244.6221,"bstar":0.00010512,"rev_number":11482,"period_min":95.90825295039,"perigee_km":559.79513126701,"apogee_km":565.14633983112,"semimajor_km":6940.6077355491,"source":"CELESTRAK","updated_at":"2026-09-23T09:00:20.699313Z"}}}